owner,sensor,date,latitude,longitude,vertical_datum,sea_water_temperature,qcFlag
BP,ioos:station:wmo:42370:2,2020-07-04T17:53:00Z,27.3215,-90.5355,18.3,28.1,11111222
BP,ioos:station:wmo:42370:2,2020-07-04T18:13:00Z,27.3215,-90.5355,18.3,28.3,11111222
BP,ioos:station:wmo:42370:2,2020-07-04T18:33:00Z,27.3215,-90.5355,18.3,27.6,11111222
BP,ioos:station:wmo:42370:2,2020-07-04T18:53:00Z,27.3215,-90.5355,18.3,27.7,11111222
BP,ioos:station:wmo:42370:2,2020-07-04T19:13:00Z,27.3215,-90.5355,18.3,28.2,11111222
BP,ioos:station:wmo:42370:2,2020-07-04T19:33:00Z,27.3215,-90.5355,18.3,27.7,11111222
BP,ioos:station:wmo:42370:2,2020-07-04T19:53:00Z,27.3215,-90.5355,18.3,27.8,11111222
BP,ioos:station:wmo:42370:2,2020-07-04T20:13:00Z,27.3215,-90.5355,18.3,27.7,11111222
BP,ioos:station:wmo:42370:2,2020-07-04T20:33:00Z,27.3215,-90.5355,18.3,28.1,11111222
BP,ioos:station:wmo:42370:2,2020-07-04T20:53:00Z,27.3215,-90.5355,18.3,27.7,11111222
BP,ioos:station:wmo:42370:2,2020-07-04T21:13:00Z,27.3215,-90.5355,18.3,27.7,11111222
BP,ioos:station:wmo:42370:2,2020-07-04T21:33:00Z,27.3215,-90.5355,18.3,27.6,11111222
BP,ioos:station:wmo:42370:2,2020-07-04T21:53:00Z,27.3215,-90.5355,18.3,27.8,11111222
BP,ioos:station:wmo:42370:2,2020-07-04T22:13:00Z,27.3215,-90.5355,18.3,27.7,11111222
BP,ioos:station:wmo:42370:2,2020-07-04T22:33:00Z,27.3215,-90.5355,18.3,27.7,11111222
BP,ioos:station:wmo:42370:2,2020-07-04T22:53:00Z,27.3215,-90.5355,18.3,27.7,11111222
BP,ioos:station:wmo:42370:2,2020-07-04T23:13:00Z,27.3215,-90.5355,18.3,27.8,11111222
BP,ioos:station:wmo:42370:2,2020-07-04T23:33:00Z,27.3215,-90.5355,18.3,28.2,11111222
BP,ioos:station:wmo:42370:2,2020-07-04T23:53:00Z,27.3215,-90.5355,18.3,27.9,11111222
BP,ioos:station:wmo:42370:2,2020-07-05T00:13:00Z,27.3215,-90.5355,18.3,28.4,11111222
BP,ioos:station:wmo:42370:2,2020-07-05T00:33:00Z,27.3215,-90.5355,18.3,28.0,11111222
BP,ioos:station:wmo:42370:2,2020-07-05T00:53:00Z,27.3215,-90.5355,18.3,28.4,11111222
BP,ioos:station:wmo:42370:2,2020-07-05T01:13:00Z,27.3215,-90.5355,18.3,27.8,11111222
BP,ioos:station:wmo:42370:2,2020-07-05T01:33:00Z,27.3215,-90.5355,18.3,28.3,11111222
BP,ioos:station:wmo:42370:2,2020-07-05T01:53:00Z,27.3215,-90.5355,18.3,27.9,11111222
BP,ioos:station:wmo:42370:2,2020-07-05T02:13:00Z,27.3215,-90.5355,18.3,27.8,11111222
BP,ioos:station:wmo:42370:2,2020-07-05T02:33:00Z,27.3215,-90.5355,18.3,28.1,11111222
BP,ioos:station:wmo:42370:2,2020-07-05T02:53:00Z,27.3215,-90.5355,18.3,27.4,11111222
BP,ioos:station:wmo:42370:2,2020-07-05T03:13:00Z,27.3215,-90.5355,18.3,27.7,11111222
BP,ioos:station:wmo:42370:2,2020-07-05T03:33:00Z,27.3215,-90.5355,18.3,27.2,11111222
BP,ioos:station:wmo:42370:2,2020-07-05T03:53:00Z,27.3215,-90.5355,18.3,27.4,11111222
BP,ioos:station:wmo:42370:2,2020-07-05T04:13:00Z,27.3215,-90.5355,18.3,27.9,11111222
BP,ioos:station:wmo:42370:2,2020-07-05T04:33:00Z,27.3215,-90.5355,18.3,27.9,11111222
BP,ioos:station:wmo:42370:2,2020-07-05T04:53:00Z,27.3215,-90.5355,18.3,27.9,11111222
BP,ioos:station:wmo:42370:2,2020-07-05T05:13:00Z,27.3215,-90.5355,18.3,28.0,11111222
BP,ioos:station:wmo:42370:2,2020-07-05T05:33:00Z,27.3215,-90.5355,18.3,27.8,11111222
BP,ioos:station:wmo:42370:2,2020-07-05T05:53:00Z,27.3215,-90.5355,18.3,28.0,11111222
BP,ioos:station:wmo:42370:2,2020-07-05T06:13:00Z,27.3215,-90.5355,18.3,27.9,11111222
BP,ioos:station:wmo:42370:2,2020-07-05T06:33:00Z,27.3215,-90.5355,18.3,27.8,11111222
BP,ioos:station:wmo:42370:2,2020-07-05T06:53:00Z,27.3215,-90.5355,18.3,27.8,11111222
BP,ioos:station:wmo:42370:2,2020-07-05T07:13:00Z,27.3215,-90.5355,18.3,27.3,11111222
BP,ioos:station:wmo:42370:2,2020-07-05T07:33:00Z,27.3215,-90.5355,18.3,28.0,11111222
BP,ioos:station:wmo:42370:2,2020-07-05T07:53:00Z,27.3215,-90.5355,18.3,27.9,11111222
BP,ioos:station:wmo:42370:2,2020-07-05T08:13:00Z,27.3215,-90.5355,18.3,28.2,11111222
BP,ioos:station:wmo:42370:2,2020-07-05T08:33:00Z,27.3215,-90.5355,18.3,27.7,11111222
BP,ioos:station:wmo:42370:2,2020-07-05T08:53:00Z,27.3215,-90.5355,18.3,27.8,11111222
BP,ioos:station:wmo:42370:2,2020-07-05T09:13:00Z,27.3215,-90.5355,18.3,27.7,11111222
BP,ioos:station:wmo:42370:2,2020-07-05T09:33:00Z,27.3215,-90.5355,18.3,28.3,11111222
BP,ioos:station:wmo:42370:2,2020-07-05T09:53:00Z,27.3215,-90.5355,18.3,27.7,11111222
BP,ioos:station:wmo:42370:2,2020-07-05T10:13:00Z,27.3215,-90.5355,18.3,27.8,11111222
BP,ioos:station:wmo:42370:2,2020-07-05T10:33:00Z,27.3215,-90.5355,18.3,28.1,11111222
BP,ioos:station:wmo:42370:2,2020-07-05T10:53:00Z,27.3215,-90.5355,18.3,28.2,11111222
BP,ioos:station:wmo:42370:2,2020-07-05T11:13:00Z,27.3215,-90.5355,18.3,28.2,11111222
BP,ioos:station:wmo:42370:2,2020-07-05T11:33:00Z,27.3215,-90.5355,18.3,28.1,11111222
BP,ioos:station:wmo:42370:2,2020-07-05T11:52:00Z,27.3215,-90.5355,18.3,28.5,11111222
BP,ioos:station:wmo:42370:2,2020-07-05T12:12:00Z,27.3215,-90.5355,18.3,28.3,11111222
BP,ioos:station:wmo:42370:2,2020-07-05T12:32:00Z,27.3215,-90.5355,18.3,28.3,11111222
BP,ioos:station:wmo:42370:2,2020-07-05T12:52:00Z,27.3215,-90.5355,18.3,28.3,11111222
BP,ioos:station:wmo:42370:2,2020-07-05T13:12:00Z,27.3215,-90.5355,18.3,28.1,11111222
BP,ioos:station:wmo:42370:2,2020-07-05T13:32:00Z,27.3215,-90.5355,18.3,28.9,11111222
BP,ioos:station:wmo:42370:2,2020-07-05T13:52:00Z,27.3215,-90.5355,18.3,28.9,11111222
BP,ioos:station:wmo:42370:2,2020-07-05T14:12:00Z,27.3215,-90.5355,18.3,28.9,11111222
BP,ioos:station:wmo:42370:2,2020-07-05T14:32:00Z,27.3215,-90.5355,18.3,28.9,11111222
BP,ioos:station:wmo:42370:2,2020-07-05T14:52:00Z,27.3215,-90.5355,18.3,28.8,11111222
BP,ioos:station:wmo:42370:2,2020-07-05T15:12:00Z,27.3215,-90.5355,18.3,28.6,11111222
BP,ioos:station:wmo:42370:2,2020-07-05T15:32:00Z,27.3215,-90.5355,18.3,28.6,11111222
BP,ioos:station:wmo:42370:2,2020-07-05T15:52:00Z,27.3215,-90.5355,18.3,28.6,11111222
BP,ioos:station:wmo:42370:2,2020-07-05T16:12:00Z,27.3215,-90.5355,18.3,28.4,11111222
BP,ioos:station:wmo:42370:2,2020-07-05T16:32:00Z,27.3215,-90.5355,18.3,28.3,11111222
BP,ioos:station:wmo:42370:2,2020-07-05T16:52:00Z,27.3215,-90.5355,18.3,28.0,11111222
BP,ioos:station:wmo:42370:2,2020-07-05T17:12:00Z,27.3215,-90.5355,18.3,28.5,11111222
BP,ioos:station:wmo:42370:2,2020-07-05T17:32:00Z,27.3215,-90.5355,18.3,27.9,11111222
BP,ioos:station:wmo:42370:2,2020-07-05T17:52:00Z,27.3215,-90.5355,18.3,28.1,11111222
BP,ioos:station:wmo:42370:2,2020-07-05T18:12:00Z,27.3215,-90.5355,18.3,27.9,11111222
BP,ioos:station:wmo:42370:2,2020-07-05T18:32:00Z,27.3215,-90.5355,18.3,27.8,11111222
BP,ioos:station:wmo:42370:2,2020-07-05T18:52:00Z,27.3215,-90.5355,18.3,27.9,11111222
BP,ioos:station:wmo:42370:2,2020-07-05T19:12:00Z,27.3215,-90.5355,18.3,27.8,11111222
BP,ioos:station:wmo:42370:2,2020-07-05T19:32:00Z,27.3215,-90.5355,18.3,28.5,11111222
BP,ioos:station:wmo:42370:2,2020-07-05T19:52:00Z,27.3215,-90.5355,18.3,28.3,11111222
BP,ioos:station:wmo:42370:2,2020-07-05T20:12:00Z,27.3215,-90.5355,18.3,28.8,11111222
BP,ioos:station:wmo:42370:2,2020-07-05T20:32:00Z,27.3215,-90.5355,18.3,28.4,11111222
BP,ioos:station:wmo:42370:2,2020-07-05T20:52:00Z,27.3215,-90.5355,18.3,28.4,11111222
BP,ioos:station:wmo:42370:2,2020-07-05T21:12:00Z,27.3215,-90.5355,18.3,28.8,11111222
BP,ioos:station:wmo:42370:2,2020-07-05T21:32:00Z,27.3215,-90.5355,18.3,28.2,11111222
BP,ioos:station:wmo:42370:2,2020-07-05T21:52:00Z,27.3215,-90.5355,18.3,28.8,11111222
BP,ioos:station:wmo:42370:2,2020-07-05T22:12:00Z,27.3215,-90.5355,18.3,28.8,11111222
BP,ioos:station:wmo:42370:2,2020-07-05T22:32:00Z,27.3215,-90.5355,18.3,28.6,11111222
BP,ioos:station:wmo:42370:2,2020-07-05T22:52:00Z,27.3215,-90.5355,18.3,29.4,11111222
BP,ioos:station:wmo:42370:2,2020-07-05T23:12:00Z,27.3215,-90.5355,18.3,29.6,11111222
BP,ioos:station:wmo:42370:2,2020-07-05T23:32:00Z,27.3215,-90.5355,18.3,28.9,11111222
BP,ioos:station:wmo:42370:2,2020-07-05T23:52:00Z,27.3215,-90.5355,18.3,28.9,11111222
BP,ioos:station:wmo:42370:2,2020-07-06T00:12:00Z,27.3215,-90.5355,18.3,29.5,11111222
BP,ioos:station:wmo:42370:2,2020-07-06T00:32:00Z,27.3215,-90.5355,18.3,29.0,11111222
BP,ioos:station:wmo:42370:2,2020-07-06T00:52:00Z,27.3215,-90.5355,18.3,29.2,11111222
BP,ioos:station:wmo:42370:2,2020-07-06T01:12:00Z,27.3215,-90.5355,18.3,29.4,11111222
BP,ioos:station:wmo:42370:2,2020-07-06T01:32:00Z,27.3215,-90.5355,18.3,29.0,11111222
BP,ioos:station:wmo:42370:2,2020-07-06T01:52:00Z,27.3215,-90.5355,18.3,28.8,11111222
BP,ioos:station:wmo:42370:2,2020-07-06T02:12:00Z,27.3215,-90.5355,18.3,28.2,11111222
BP,ioos:station:wmo:42370:2,2020-07-06T02:32:00Z,27.3215,-90.5355,18.3,28.8,11111222
BP,ioos:station:wmo:42370:2,2020-07-06T02:52:00Z,27.3215,-90.5355,18.3,28.5,11111222
BP,ioos:station:wmo:42370:2,2020-07-06T03:12:00Z,27.3215,-90.5355,18.3,28.1,11111222
BP,ioos:station:wmo:42370:2,2020-07-06T03:32:00Z,27.3215,-90.5355,18.3,28.0,11111222
BP,ioos:station:wmo:42370:2,2020-07-06T03:52:00Z,27.3215,-90.5355,18.3,27.8,11111222
BP,ioos:station:wmo:42370:2,2020-07-06T04:12:00Z,27.3215,-90.5355,18.3,28.4,11111222
BP,ioos:station:wmo:42370:2,2020-07-06T04:32:00Z,27.3215,-90.5355,18.3,28.4,11111222
BP,ioos:station:wmo:42370:2,2020-07-06T04:52:00Z,27.3215,-90.5355,18.3,28.5,11111222
BP,ioos:station:wmo:42370:2,2020-07-06T05:12:00Z,27.3215,-90.5355,18.3,27.9,11111222
BP,ioos:station:wmo:42370:2,2020-07-06T05:32:00Z,27.3215,-90.5355,18.3,28.3,11111222
BP,ioos:station:wmo:42370:2,2020-07-06T05:52:00Z,27.3215,-90.5355,18.3,28.0,11111222
BP,ioos:station:wmo:42370:2,2020-07-06T06:12:00Z,27.3215,-90.5355,18.3,28.3,11111222
BP,ioos:station:wmo:42370:2,2020-07-06T06:32:00Z,27.3215,-90.5355,18.3,27.7,11111222
BP,ioos:station:wmo:42370:2,2020-07-06T06:52:00Z,27.3215,-90.5355,18.3,28.1,11111222
BP,ioos:station:wmo:42370:2,2020-07-06T07:12:00Z,27.3215,-90.5355,18.3,27.8,11111222
BP,ioos:station:wmo:42370:2,2020-07-06T07:32:00Z,27.3215,-90.5355,18.3,28.3,11111222
BP,ioos:station:wmo:42370:2,2020-07-06T07:52:00Z,27.3215,-90.5355,18.3,28.1,11111222
BP,ioos:station:wmo:42370:2,2020-07-06T08:12:00Z,27.3215,-90.5355,18.3,27.6,11111222
BP,ioos:station:wmo:42370:2,2020-07-06T08:32:00Z,27.3215,-90.5355,18.3,27.6,11111222
BP,ioos:station:wmo:42370:2,2020-07-06T08:52:00Z,27.3215,-90.5355,18.3,28.2,11111222
BP,ioos:station:wmo:42370:2,2020-07-06T09:12:00Z,27.3215,-90.5355,18.3,28.0,11111222
BP,ioos:station:wmo:42370:2,2020-07-06T09:32:00Z,27.3215,-90.5355,18.3,28.3,11111222
BP,ioos:station:wmo:42370:2,2020-07-06T09:52:00Z,27.3215,-90.5355,18.3,27.8,11111222
BP,ioos:station:wmo:42370:2,2020-07-06T10:12:00Z,27.3215,-90.5355,18.3,28.0,11111222
BP,ioos:station:wmo:42370:2,2020-07-06T10:32:00Z,27.3215,-90.5355,18.3,27.5,11111222
BP,ioos:station:wmo:42370:2,2020-07-06T10:52:00Z,27.3215,-90.5355,18.3,27.9,11111222
BP,ioos:station:wmo:42370:2,2020-07-06T11:12:00Z,27.3215,-90.5355,18.3,27.9,11111222
BP,ioos:station:wmo:42370:2,2020-07-06T11:32:00Z,27.3215,-90.5355,18.3,27.8,11111222
BP,ioos:station:wmo:42370:2,2020-07-06T11:52:00Z,27.3215,-90.5355,18.3,27.9,11111222
BP,ioos:station:wmo:42370:2,2020-07-06T12:12:00Z,27.3215,-90.5355,18.3,28.4,11111222
BP,ioos:station:wmo:42370:2,2020-07-06T12:32:00Z,27.3215,-90.5355,18.3,28.0,11111222
BP,ioos:station:wmo:42370:2,2020-07-06T12:52:00Z,27.3215,-90.5355,18.3,28.1,11111222
BP,ioos:station:wmo:42370:2,2020-07-06T13:12:00Z,27.3215,-90.5355,18.3,28.4,11111222
BP,ioos:station:wmo:42370:2,2020-07-06T13:32:00Z,27.3215,-90.5355,18.3,28.5,11111222
BP,ioos:station:wmo:42370:2,2020-07-06T13:52:00Z,27.3215,-90.5355,18.3,28.0,11111222
BP,ioos:station:wmo:42370:2,2020-07-06T14:12:00Z,27.3215,-90.5355,18.3,28.2,11111222
BP,ioos:station:wmo:42370:2,2020-07-06T14:32:00Z,27.3215,-90.5355,18.3,27.8,11111222
BP,ioos:station:wmo:42370:2,2020-07-06T14:52:00Z,27.3215,-90.5355,18.3,28.3,11111222
BP,ioos:station:wmo:42370:2,2020-07-06T15:12:00Z,27.3215,-90.5355,18.3,28.3,11111222
BP,ioos:station:wmo:42370:2,2020-07-06T15:32:00Z,27.3215,-90.5355,18.3,27.9,11111222
BP,ioos:station:wmo:42370:2,2020-07-06T15:52:00Z,27.3215,-90.5355,18.3,27.7,11111222
BP,ioos:station:wmo:42370:2,2020-07-06T16:12:00Z,27.3215,-90.5355,18.3,28.1,11111222
BP,ioos:station:wmo:42370:2,2020-07-06T16:32:00Z,27.3215,-90.5355,18.3,27.9,11111222
BP,ioos:station:wmo:42370:2,2020-07-06T16:52:00Z,27.3215,-90.5355,18.3,28.3,11111222
BP,ioos:station:wmo:42370:2,2020-07-06T17:12:00Z,27.3215,-90.5355,18.3,28.3,11111222
BP,ioos:station:wmo:42370:2,2020-07-06T17:32:00Z,27.3215,-90.5355,18.3,27.9,11111222
BP,ioos:station:wmo:42370:2,2020-07-06T17:52:00Z,27.3215,-90.5355,18.3,28.9,11111222
BP,ioos:station:wmo:42370:2,2020-07-06T18:12:00Z,27.3215,-90.5355,18.3,28.7,11111222
BP,ioos:station:wmo:42370:2,2020-07-06T18:32:00Z,27.3215,-90.5355,18.3,28.9,11111222
BP,ioos:station:wmo:42370:2,2020-07-06T18:52:00Z,27.3215,-90.5355,18.3,28.9,11111222
BP,ioos:station:wmo:42370:2,2020-07-06T19:12:00Z,27.3215,-90.5355,18.3,28.9,11111222
BP,ioos:station:wmo:42370:2,2020-07-06T19:32:00Z,27.3215,-90.5355,18.3,29.3,11111222
BP,ioos:station:wmo:42370:2,2020-07-06T19:52:00Z,27.3215,-90.5355,18.3,29.7,11111222
BP,ioos:station:wmo:42370:2,2020-07-06T20:12:00Z,27.3215,-90.5355,18.3,28.8,11111222
BP,ioos:station:wmo:42370:2,2020-07-06T20:32:00Z,27.3215,-90.5355,18.3,29.2,11111222
BP,ioos:station:wmo:42370:2,2020-07-06T20:52:00Z,27.3215,-90.5355,18.3,28.8,11111222
BP,ioos:station:wmo:42370:2,2020-07-06T21:12:00Z,27.3215,-90.5355,18.3,28.8,11111222
BP,ioos:station:wmo:42370:2,2020-07-06T21:32:00Z,27.3215,-90.5355,18.3,29.1,11111222
BP,ioos:station:wmo:42370:2,2020-07-06T21:52:00Z,27.3215,-90.5355,18.3,29.1,11111222
BP,ioos:station:wmo:42370:2,2020-07-06T22:12:00Z,27.3215,-90.5355,18.3,29.4,11111222
BP,ioos:station:wmo:42370:2,2020-07-06T22:32:00Z,27.3215,-90.5355,18.3,29.4,11111222
BP,ioos:station:wmo:42370:2,2020-07-06T22:52:00Z,27.3215,-90.5355,18.3,29.2,11111222
BP,ioos:station:wmo:42370:2,2020-07-06T23:12:00Z,27.3215,-90.5355,18.3,29.1,11111222
BP,ioos:station:wmo:42370:2,2020-07-06T23:32:00Z,27.3215,-90.5355,18.3,29.3,11111222
BP,ioos:station:wmo:42370:2,2020-07-06T23:52:00Z,27.3215,-90.5355,18.3,28.9,11111222
BP,ioos:station:wmo:42370:2,2020-07-07T00:12:00Z,27.3215,-90.5355,18.3,29.3,11111222
BP,ioos:station:wmo:42370:2,2020-07-07T00:32:00Z,27.3215,-90.5355,18.3,28.9,11111222
BP,ioos:station:wmo:42370:2,2020-07-07T00:52:00Z,27.3215,-90.5355,18.3,29.2,11111222
BP,ioos:station:wmo:42370:2,2020-07-07T01:12:00Z,27.3215,-90.5355,18.3,28.6,11111222
BP,ioos:station:wmo:42370:2,2020-07-07T01:32:00Z,27.3215,-90.5355,18.3,28.8,11111222
BP,ioos:station:wmo:42370:2,2020-07-07T01:52:00Z,27.3215,-90.5355,18.3,28.8,11111222
BP,ioos:station:wmo:42370:2,2020-07-07T02:12:00Z,27.3215,-90.5355,18.3,28.7,11111222
BP,ioos:station:wmo:42370:2,2020-07-07T02:32:00Z,27.3215,-90.5355,18.3,28.0,11111222
BP,ioos:station:wmo:42370:2,2020-07-07T02:52:00Z,27.3215,-90.5355,18.3,28.3,11111222
BP,ioos:station:wmo:42370:2,2020-07-07T03:12:00Z,27.3215,-90.5355,18.3,28.4,11111222
BP,ioos:station:wmo:42370:2,2020-07-07T03:32:00Z,27.3215,-90.5355,18.3,28.0,11111222
BP,ioos:station:wmo:42370:2,2020-07-07T03:52:00Z,27.3215,-90.5355,18.3,28.3,11111222
BP,ioos:station:wmo:42370:2,2020-07-07T04:12:00Z,27.3215,-90.5355,18.3,27.9,11111222
BP,ioos:station:wmo:42370:2,2020-07-07T04:32:00Z,27.3215,-90.5355,18.3,28.3,11111222
BP,ioos:station:wmo:42370:2,2020-07-07T04:52:00Z,27.3215,-90.5355,18.3,28.0,11111222
BP,ioos:station:wmo:42370:2,2020-07-07T05:12:00Z,27.3215,-90.5355,18.3,27.6,11111222
BP,ioos:station:wmo:42370:2,2020-07-07T05:32:00Z,27.3215,-90.5355,18.3,27.9,11111222
BP,ioos:station:wmo:42370:2,2020-07-07T05:52:00Z,27.3215,-90.5355,18.3,27.9,11111222
BP,ioos:station:wmo:42370:2,2020-07-07T06:12:00Z,27.3215,-90.5355,18.3,27.9,11111222
BP,ioos:station:wmo:42370:2,2020-07-07T06:32:00Z,27.3215,-90.5355,18.3,28.3,11111222
BP,ioos:station:wmo:42370:2,2020-07-07T06:52:00Z,27.3215,-90.5355,18.3,28.2,11111222
BP,ioos:station:wmo:42370:2,2020-07-07T07:12:00Z,27.3215,-90.5355,18.3,27.7,11111222
BP,ioos:station:wmo:42370:2,2020-07-07T07:32:00Z,27.3215,-90.5355,18.3,28.3,11111222
BP,ioos:station:wmo:42370:2,2020-07-07T07:52:00Z,27.3215,-90.5355,18.3,27.6,11111222
BP,ioos:station:wmo:42370:2,2020-07-07T08:12:00Z,27.3215,-90.5355,18.3,27.7,11111222
BP,ioos:station:wmo:42370:2,2020-07-07T08:32:00Z,27.3215,-90.5355,18.3,28.0,11111222
BP,ioos:station:wmo:42370:2,2020-07-07T08:52:00Z,27.3215,-90.5355,18.3,27.9,11111222
BP,ioos:station:wmo:42370:2,2020-07-07T09:12:00Z,27.3215,-90.5355,18.3,28.0,11111222
BP,ioos:station:wmo:42370:2,2020-07-07T09:32:00Z,27.3215,-90.5355,18.3,28.0,11111222
BP,ioos:station:wmo:42370:2,2020-07-07T09:52:00Z,27.3215,-90.5355,18.3,27.8,11111222
BP,ioos:station:wmo:42370:2,2020-07-07T10:12:00Z,27.3215,-90.5355,18.3,27.7,11111222
BP,ioos:station:wmo:42370:2,2020-07-07T10:32:00Z,27.3215,-90.5355,18.3,27.9,11111222
BP,ioos:station:wmo:42370:2,2020-07-07T10:52:00Z,27.3215,-90.5355,18.3,28.4,11111222
BP,ioos:station:wmo:42370:2,2020-07-07T11:12:00Z,27.3215,-90.5355,18.3,27.7,11111222
BP,ioos:station:wmo:42370:2,2020-07-07T11:32:00Z,27.3215,-90.5355,18.3,27.8,11111222
BP,ioos:station:wmo:42370:2,2020-07-07T11:52:00Z,27.3215,-90.5355,18.3,27.7,11111222
BP,ioos:station:wmo:42370:2,2020-07-07T12:12:00Z,27.3215,-90.5355,18.3,28.0,11111222
BP,ioos:station:wmo:42370:2,2020-07-07T12:32:00Z,27.3215,-90.5355,18.3,27.6,11111222
BP,ioos:station:wmo:42370:2,2020-07-07T12:52:00Z,27.3215,-90.5355,18.3,27.5,11111222
BP,ioos:station:wmo:42370:2,2020-07-07T13:12:00Z,27.3215,-90.5355,18.3,27.2,11111222
BP,ioos:station:wmo:42370:2,2020-07-07T13:32:00Z,27.3215,-90.5355,18.3,27.8,11111222
BP,ioos:station:wmo:42370:2,2020-07-07T13:52:00Z,27.3215,-90.5355,18.3,27.4,11111222
BP,ioos:station:wmo:42370:2,2020-07-07T14:12:00Z,27.3215,-90.5355,18.3,27.2,11111222
BP,ioos:station:wmo:42370:2,2020-07-07T14:32:00Z,27.3215,-90.5355,18.3,27.8,11111222
BP,ioos:station:wmo:42370:2,2020-07-07T14:52:00Z,27.3215,-90.5355,18.3,27.6,11111222
BP,ioos:station:wmo:42370:2,2020-07-07T15:12:00Z,27.3215,-90.5355,18.3,26.9,11111222
BP,ioos:station:wmo:42370:2,2020-07-07T15:32:00Z,27.3215,-90.5355,18.3,27.2,11111222
BP,ioos:station:wmo:42370:2,2020-07-07T15:52:00Z,27.3215,-90.5355,18.3,27.2,11111222
BP,ioos:station:wmo:42370:2,2020-07-07T16:12:00Z,27.3215,-90.5355,18.3,26.9,11111222
BP,ioos:station:wmo:42370:2,2020-07-07T16:32:00Z,27.3215,-90.5355,18.3,27.7,11111222
BP,ioos:station:wmo:42370:2,2020-07-07T16:52:00Z,27.3215,-90.5355,18.3,26.9,11111222
BP,ioos:station:wmo:42370:2,2020-07-07T17:12:00Z,27.3215,-90.5355,18.3,26.9,11111222
BP,ioos:station:wmo:42370:2,2020-07-07T17:32:00Z,27.3215,-90.5355,18.3,27.3,11111222
BP,ioos:station:wmo:42370:2,2020-07-07T17:52:00Z,27.3215,-90.5355,18.3,27.8,11111222
BP,ioos:station:wmo:42370:2,2020-07-07T18:12:00Z,27.3215,-90.5355,18.3,27.6,11111222
BP,ioos:station:wmo:42370:2,2020-07-07T18:32:00Z,27.3215,-90.5355,18.3,27.6,11111222
BP,ioos:station:wmo:42370:2,2020-07-07T18:52:00Z,27.3215,-90.5355,18.3,28.4,11111222
BP,ioos:station:wmo:42370:2,2020-07-07T19:12:00Z,27.3215,-90.5355,18.3,29.1,11111222
BP,ioos:station:wmo:42370:2,2020-07-07T19:32:00Z,27.3215,-90.5355,18.3,29.1,11111222
BP,ioos:station:wmo:42370:2,2020-07-07T19:52:00Z,27.3215,-90.5355,18.3,29.3,11111222
BP,ioos:station:wmo:42370:2,2020-07-07T20:12:00Z,27.3215,-90.5355,18.3,29.3,11111222
BP,ioos:station:wmo:42370:2,2020-07-07T20:32:00Z,27.3215,-90.5355,18.3,28.9,11111222
BP,ioos:station:wmo:42370:2,2020-07-07T20:52:00Z,27.3215,-90.5355,18.3,28.7,11111222
BP,ioos:station:wmo:42370:2,2020-07-07T21:12:00Z,27.3215,-90.5355,18.3,28.8,11111222
BP,ioos:station:wmo:42370:2,2020-07-07T21:32:00Z,27.3215,-90.5355,18.3,29.5,11111222
BP,ioos:station:wmo:42370:2,2020-07-07T21:52:00Z,27.3215,-90.5355,18.3,29.0,11111222
BP,ioos:station:wmo:42370:2,2020-07-07T22:12:00Z,27.3215,-90.5355,18.3,28.8,11111222
BP,ioos:station:wmo:42370:2,2020-07-07T22:32:00Z,27.3215,-90.5355,18.3,29.5,11111222
BP,ioos:station:wmo:42370:2,2020-07-07T22:52:00Z,27.3215,-90.5355,18.3,29.0,11111222
BP,ioos:station:wmo:42370:2,2020-07-07T23:12:00Z,27.3215,-90.5355,18.3,28.9,11111222
BP,ioos:station:wmo:42370:2,2020-07-07T23:32:00Z,27.3215,-90.5355,18.3,29.0,11111222
BP,ioos:station:wmo:42370:2,2020-07-07T23:52:00Z,27.3215,-90.5355,18.3,28.9,11111222
BP,ioos:station:wmo:42370:2,2020-07-08T00:12:00Z,27.3215,-90.5355,18.3,29.2,11111222
BP,ioos:station:wmo:42370:2,2020-07-08T00:32:00Z,27.3215,-90.5355,18.3,28.8,11111222
BP,ioos:station:wmo:42370:2,2020-07-08T00:52:00Z,27.3215,-90.5355,18.3,28.8,11111222
BP,ioos:station:wmo:42370:2,2020-07-08T01:12:00Z,27.3215,-90.5355,18.3,29.3,11111222
BP,ioos:station:wmo:42370:2,2020-07-08T01:32:00Z,27.3215,-90.5355,18.3,29.2,11111222
BP,ioos:station:wmo:42370:2,2020-07-08T01:52:00Z,27.3215,-90.5355,18.3,29.3,11111222
BP,ioos:station:wmo:42370:2,2020-07-08T02:12:00Z,27.3215,-90.5355,18.3,29.0,11111222
BP,ioos:station:wmo:42370:2,2020-07-08T02:32:00Z,27.3215,-90.5355,18.3,28.9,11111222
BP,ioos:station:wmo:42370:2,2020-07-08T02:52:00Z,27.3215,-90.5355,18.3,28.7,11111222
BP,ioos:station:wmo:42370:2,2020-07-08T03:12:00Z,27.3215,-90.5355,18.3,29.1,11111222
BP,ioos:station:wmo:42370:2,2020-07-08T03:32:00Z,27.3215,-90.5355,18.3,29.2,11111222
BP,ioos:station:wmo:42370:2,2020-07-08T03:52:00Z,27.3215,-90.5355,18.3,28.1,11111222
BP,ioos:station:wmo:42370:2,2020-07-08T04:12:00Z,27.3215,-90.5355,18.3,28.1,11111222
BP,ioos:station:wmo:42370:2,2020-07-08T04:32:00Z,27.3215,-90.5355,18.3,27.9,11111222
BP,ioos:station:wmo:42370:2,2020-07-08T04:52:00Z,27.3215,-90.5355,18.3,28.6,11111222
BP,ioos:station:wmo:42370:2,2020-07-08T05:12:00Z,27.3215,-90.5355,18.3,28.1,11111222
BP,ioos:station:wmo:42370:2,2020-07-08T05:32:00Z,27.3215,-90.5355,18.3,28.2,11111222
BP,ioos:station:wmo:42370:2,2020-07-08T05:52:00Z,27.3215,-90.5355,18.3,28.3,11111222
BP,ioos:station:wmo:42370:2,2020-07-08T06:12:00Z,27.3215,-90.5355,18.3,27.9,11111222
BP,ioos:station:wmo:42370:2,2020-07-08T06:32:00Z,27.3215,-90.5355,18.3,27.9,11111222
BP,ioos:station:wmo:42370:2,2020-07-08T06:52:00Z,27.3215,-90.5355,18.3,28.1,11111222
BP,ioos:station:wmo:42370:2,2020-07-08T07:12:00Z,27.3215,-90.5355,18.3,27.3,11111222
BP,ioos:station:wmo:42370:2,2020-07-08T07:32:00Z,27.3215,-90.5355,18.3,27.2,11111222
BP,ioos:station:wmo:42370:2,2020-07-08T07:52:00Z,27.3215,-90.5355,18.3,27.0,11111222
BP,ioos:station:wmo:42370:2,2020-07-08T08:12:00Z,27.3215,-90.5355,18.3,27.5,11111222
BP,ioos:station:wmo:42370:2,2020-07-08T08:32:00Z,27.3215,-90.5355,18.3,27.7,11111222
BP,ioos:station:wmo:42370:2,2020-07-08T08:52:00Z,27.3215,-90.5355,18.3,27.2,11111222
BP,ioos:station:wmo:42370:2,2020-07-08T09:12:00Z,27.3215,-90.5355,18.3,27.7,11111222
BP,ioos:station:wmo:42370:2,2020-07-08T09:32:00Z,27.3215,-90.5355,18.3,27.4,11111222
BP,ioos:station:wmo:42370:2,2020-07-08T09:52:00Z,27.3215,-90.5355,18.3,27.6,11111222
BP,ioos:station:wmo:42370:2,2020-07-08T10:12:00Z,27.3215,-90.5355,18.3,28.2,11111222
BP,ioos:station:wmo:42370:2,2020-07-08T10:32:00Z,27.3215,-90.5355,18.3,27.5,11111222
BP,ioos:station:wmo:42370:2,2020-07-08T10:52:00Z,27.3215,-90.5355,18.3,28.1,11111222
BP,ioos:station:wmo:42370:2,2020-07-08T11:12:00Z,27.3215,-90.5355,18.3,27.8,11111222
BP,ioos:station:wmo:42370:2,2020-07-08T11:32:00Z,27.3215,-90.5355,18.3,28.2,11111222
BP,ioos:station:wmo:42370:2,2020-07-08T11:52:00Z,27.3215,-90.5355,18.3,28.0,11111222
BP,ioos:station:wmo:42370:2,2020-07-08T12:12:00Z,27.3215,-90.5355,18.3,27.3,11111222
BP,ioos:station:wmo:42370:2,2020-07-08T12:32:00Z,27.3215,-90.5355,18.3,27.6,11111222
BP,ioos:station:wmo:42370:2,2020-07-08T12:52:00Z,27.3215,-90.5355,18.3,27.6,11111222
BP,ioos:station:wmo:42370:2,2020-07-08T13:12:00Z,27.3215,-90.5355,18.3,27.6,11111222
BP,ioos:station:wmo:42370:2,2020-07-08T13:32:00Z,27.3215,-90.5355,18.3,27.1,11111222
BP,ioos:station:wmo:42370:2,2020-07-08T13:52:00Z,27.3215,-90.5355,18.3,27.2,11111222
BP,ioos:station:wmo:42370:2,2020-07-08T14:12:00Z,27.3215,-90.5355,18.3,27.6,11111222